Location: Little Elm
(33.1626°N, 96.9375°W)
Time: 14:05:32
(UTC+00:00)

Cosmos 1515 Rocket - Pass Details

Date: 11 July 2022
Orbit: 604 x 630 km, 82.5° (Epoch: 17 August)

Event Time Altitude Azimuth Distance (km) Brightness Sun altitude
Rises 07:33:32 0° 9° (N) 2,878 8.1 -32.9°
Reaches altitude 10° 07:36:11 10° 25° (NNE) 1,965 7.0 -32.7°
Enters shadow 07:38:33 21° 56° (NE) 1,396 5.8 -32.6°
